RH
82 82 81 81 82 82 80 78 77 76 75 73 68 62 57 53 49 46 43 39 36 34 33 30 29 29 28 27 28 33 37 38 36 36 37 37 37 37 36 36 36 35
81 80 79 79 80 80 80 78 78 78 78 78 76 71 65 59 54 50 48 46 43 40 38 34 30 30 30 30 32 36 37 36 32 31 32 32 32 32 32 32 32 31
79 79 79 80 81 80 79 79 78 78 78 77 76 74 70 64 59 55 53 51 48 45 42 36 31 29 29 30 34 37 36 34 31 30 31 31 32 32 33 33 32 29
80 81 82 82 82 81 80 79 78 77 77 77 77 75 73 69 65 60 56 54 52 48 44 38 32 30 31 32 35 36 36 36 35 35 37 37 38 39 39 39 37 35
82 84 84 84 83 82 81 80 79 78 77 77 77 77 76 73 69 64 59 56 54 51 47 41 36 34 35 37 38 37 36 36 37 41 43 43 43 44 46 45 44 44
84 85 86 86 85 84 83 82 82 81 79 79 78 79 78 76 73 68 62 58 56 54 51 45 40 38 38 38 39 38 38 38 40 44 47 47 49 50 51 52 53 53
86 86 87 86 86 86 87 87 86 85 84 83 82 82 81 80 76 72 67 61 58 56 54 50 46 43 42 40 39 40 42 43 46 49 50 51 51 50 52 57 60 59
89 89 89 89 90 90 91 92 92 91 89 87 86 84 83 82 80 77 72 67 63 59 57 55 54 53 50 47 45 46 48 51 52 54 53 53 53 53 58 64 65 64
91 91 92 93 93 94 95 96 96 96 96 94 92 89 85 83 82 79 77 72 68 64 60 58 58 58 56 53 52 51 53 54 56 56 56 57 59 62 67 69 69 69
92 93 95 96 96 97 97 98 98 99 100 100 97 93 89 86 84 81 79 76 73 69 65 62 60 59 57 55 53 53 54 56 57 58 58 61 64 67 69 71 73 73
94 96 98 98 99 98 98 99 99 99 100 101 100 96 92 91 88 85 82 79 77 73 70 67 64 60 57 55 54 54 54 56 58 59 60 62 65 68 70 73 76 77
95 98 99 99 99 99 99 99 100 100 100 100 101 99 96 95 93 91 89 85 82 78 73 71 68 62 59 57 54 54 55 57 59 60 62 65 68 70 72 75 79 81
96 98 99 100 100 99 100 100 100 100 100 100 100 100 100 99 98 98 97 94 90 85 79 76 71 64 61 58 55 52 53 57 60 62 64 68 71 72 74 77 81 83
97 98 99 100 100 100 100 100 100 100 100 100 100 100 100 101 100 100 98 98 96 92 86 80 73 66 62 60 57 54 54 56 60 64 66 67 70 72 75 78 82 84
93 96 98 100 101 101 101 100 100 100 100 100 100 100 100 101 101 101 99 97 96 93 90 85 77 70 66 63 62 61 60 60 61 63 64 66 69 73 76 80 83 87
87 89 92 95 97 98 100 100 100 100 100 100 100 100 100 100 101 102 101 99 97 94 91 87 81 77 73 70 69 70 69 67 64 63 64 67 72 76 80 83 85 90
86 86 86 89 91 92 94 96 98 99 99 100 100 100 100 100 101 101 101 99 96 93 89 85 83 81 80 79 78 78 78 77 74 70 68 71 77 80 82 85 87 90
88 87 86 87 88 89 89 90 92 94 95 97 97 98 98 98 98 98 98 96 94 91 87 85 84 83 83 85 85 85 86 86 85 81 77 77 80 84 85 87 88 89
84 84 83 84 87 87 86 85 86 88 90 92 94 95 95 94 94 94 94 94 93 91 90 88 87 88 89 89 90 90 90 90 91 90 86 83 83 85 88 90 90 90
79 79 80 82 84 86 86 85 85 86 87 87 88 89 90 91 91 91 92 92 91 91 90 89 88 89 91 92 92 92 92 92 93 93 93 90 87 87 88 89 91 91
76 78 79 81 83 84 84 85 85 86 86 85 84 85 86 86 86 86 87 87 88 88 89 89 86 85 87 89 90 90 90 91 92 94 96 96 95 93 91 90 90 90
77 79 82 83 84 85 86 86 86 86 85 83 83 83 84 85 85 85 84 83 81 81 83 84 83 82 83 85 87 88 87 87 90 92 95 97 97 97 96 94 91 89
78 80 81 83 85 88 89 89 89 89 89 88 86 85 85 85 85 85 84 83 81 79 78 78 77 76 76 78 81 84 85 87 89 91 94 96 96 97 97 97 93 89
78 78 78 79 82 86 89 90 89 90 90 91 90 90 90 89 88 86 84 84 84 81 78 76 75 75 74 73 74 78 81 83 86 90 94 96 97 97 97 98 96 90
74 74 74 76 77 81 84 86 88 88 88 89 90 91 92 92 91 90 87 83 82 83 80 78 77 79 79 75 72 74 76 76 78 86 93 94 95 98 97 98 99 94
72 71 71 73 75 78 79 82 85 87 87 87 88 90 93 94 93 92 89 84 81 83 85 84 81 80 80 80 77 75 76 75 73 78 88 92 94 97 97 98 100 99